Estación de Coihueco
Ultimos registro cada 15 minutos 74
| N° | Estación | Fecha / Hora | Temperatura | Humedad | Lluvia | Velocidad | Dirección | Radiación | Presion |
| 74 | Coihueco | 05-05-2026 18:15 | 14,3 | 95,9 | 0 | 0 | 358 | 0,6 | 987 |
| 73 | Coihueco | 05-05-2026 18:00 | 14,8 | 93,2 | 0 | 0 | 358 | 0,6 | 987,2 |
| 72 | Coihueco | 05-05-2026 17:45 | 15,4 | 90,1 | 0 | 0 | 358 | 0,6 | 987,2 |
| 71 | Coihueco | 05-05-2026 17:30 | 15,7 | 88,1 | 0 | 0 | 358 | 6,9 | 986,9 |
| 70 | Coihueco | 05-05-2026 17:15 | 15,5 | 90,9 | 0 | 0 | 358 | 11,9 | 986,9 |
| 69 | Coihueco | 05-05-2026 17:00 | 15,3 | 94,2 | 0 | 0 | 358 | 20,6 | 987 |
| 68 | Coihueco | 05-05-2026 16:45 | 15,9 | 91,6 | 0 | 0 | 358 | 28,1 | 987,4 |
| 67 | Coihueco | 05-05-2026 16:30 | 16,6 | 87,1 | 0 | 0 | 358 | 34,4 | 986,9 |
| 66 | Coihueco | 05-05-2026 16:15 | 17 | 83,4 | 0 | 0 | 358 | 43,1 | 987,1 |
| 65 | Coihueco | 05-05-2026 16:00 | 17,1 | 82,1 | 0 | 0 | 292 | 54,4 | 986,5 |
| 64 | Coihueco | 05-05-2026 15:45 | 17,3 | 80,8 | 0 | 0,5 | 275 | 74,4 | 987 |
| 63 | Coihueco | 05-05-2026 15:30 | 17,8 | 79,2 | 0 | 0 | 17 | 166,9 | 986,7 |
| 62 | Coihueco | 05-05-2026 15:15 | 18,3 | 78 | 0 | 0 | 24 | 131,9 | 986,3 |
| 61 | Coihueco | 05-05-2026 15:00 | 17,5 | 80,3 | 0 | 0,5 | 330 | 209,4 | 985,7 |
| 60 | Coihueco | 05-05-2026 14:45 | 17,6 | 81,2 | 0 | 1 | 296 | 199,4 | 986,4 |
| 59 | Coihueco | 05-05-2026 14:30 | 17,5 | 82,1 | 0 | 1 | 351 | 174,4 | 985,9 |
| 58 | Coihueco | 05-05-2026 14:15 | 17,4 | 81,3 | 0 | 1 | 51 | 170,6 | 985,7 |
| 57 | Coihueco | 05-05-2026 14:00 | 17,5 | 78,9 | 0 | 0 | 53 | 158,1 | 985,4 |
| 56 | Coihueco | 05-05-2026 13:45 | 17,5 | 77,1 | 0 | 0 | 53 | 134,4 | 985,6 |
| 55 | Coihueco | 05-05-2026 13:30 | 17,8 | 76,7 | 0 | 0,5 | 55 | 168,1 | 985,5 |
| 54 | Coihueco | 05-05-2026 13:15 | 18,1 | 76,3 | 0 | 0,5 | 56 | 210,6 | 985,9 |
| 53 | Coihueco | 05-05-2026 13:00 | 17,6 | 76,5 | 0 | 1,5 | 56 | 198,1 | 985,7 |
| 52 | Coihueco | 05-05-2026 12:45 | 17,6 | 81,6 | 0 | 1 | 55 | 233,1 | 985,9 |
| 51 | Coihueco | 05-05-2026 12:30 | 17,5 | 82,7 | 0 | 0 | 55 | 231,9 | 986,4 |
| 50 | Coihueco | 05-05-2026 12:15 | 17,4 | 79,8 | 0 | 0 | 55 | 205,6 | 986,9 |
| 49 | Coihueco | 05-05-2026 12:00 | 17,3 | 82,2 | 0 | 0 | 55 | 159,4 | 986,9 |
| 48 | Coihueco | 05-05-2026 11:45 | 17,4 | 82,5 | 0 | 0 | 55 | 204,4 | 986,7 |
| 47 | Coihueco | 05-05-2026 11:30 | 16,9 | 83,8 | 0 | 0 | 55 | 176,9 | 987 |
| 46 | Coihueco | 05-05-2026 11:15 | 16,7 | 86,6 | 0 | 0 | 55 | 168,1 | 986,9 |
| 45 | Coihueco | 05-05-2026 11:00 | 16,6 | 87,4 | 0 | 0 | 59 | 208,1 | 986,8 |
| 44 | Coihueco | 05-05-2026 10:45 | 15,9 | 90,2 | 0 | 0 | 59 | 165,6 | 987,1 |
| 43 | Coihueco | 05-05-2026 10:30 | 15,4 | 91,5 | 0 | 0 | 55 | 149,4 | 987,1 |
| 42 | Coihueco | 05-05-2026 10:15 | 15,3 | 93,4 | 0 | 0 | 55 | 141,9 | 987,3 |
| 41 | Coihueco | 05-05-2026 10:00 | 14,8 | 93,3 | 0 | 0 | 55 | 146,9 | 987,2 |
| 40 | Coihueco | 05-05-2026 09:45 | 14,3 | 96,2 | 0 | 0 | 55 | 153,1 | 987,2 |
| 39 | Coihueco | 05-05-2026 09:30 | 13,8 | 99,1 | 0 | 0 | 55 | 126,9 | 987,4 |
| 38 | Coihueco | 05-05-2026 09:15 | 13,2 | 100 | 0 | 0 | 59 | 149,4 | 987,5 |
| 37 | Coihueco | 05-05-2026 09:00 | 12,2 | 100 | 0 | 0 | 59 | 93,1 | 987,5 |
| 36 | Coihueco | 05-05-2026 08:45 | 11,7 | 100 | 0 | 0 | 59 | 51,9 | 988 |
| 35 | Coihueco | 05-05-2026 08:30 | 11,4 | 100 | 0 | 0 | 59 | 58,1 | 988,3 |
| 34 | Coihueco | 05-05-2026 08:15 | 11 | 100 | 0 | 0 | 59 | 24,4 | 988,4 |
| 33 | Coihueco | 05-05-2026 08:00 | 11 | 100 | 0 | 0 | 59 | 8,1 | 988,2 |
| 32 | Coihueco | 05-05-2026 07:45 | 11 | 100 | 0 | 0 | 59 | 1,9 | 988,4 |
| 31 | Coihueco | 05-05-2026 07:30 | 11,2 | 100 | 0 | 0 | 59 | 0,6 | 988,7 |
| 30 | Coihueco | 05-05-2026 07:15 | 11,1 | 100 | 0 | 0 | 59 | 0,6 | 988,9 |
| 29 | Coihueco | 05-05-2026 07:00 | 11,2 | 100 | 0 | 0 | 59 | 0,6 | 988,9 |
| 28 | Coihueco | 05-05-2026 06:45 | 11,4 | 100 | 0 | 0 | 59 | 0,6 | 989,1 |
| 27 | Coihueco | 05-05-2026 06:30 | 11,5 | 100 | 0 | 0 | 59 | 0,6 | 988,9 |
| 26 | Coihueco | 05-05-2026 06:15 | 11,1 | 100 | 0 | 0 | 59 | 0,6 | 988,8 |
| 25 | Coihueco | 05-05-2026 06:00 | 11,2 | 100 | 0 | 0 | 59 | 0,6 | 989,2 |
| 24 | Coihueco | 05-05-2026 05:45 | 11,4 | 100 | 0 | 0,5 | 59 | 0,6 | 989,2 |
| 23 | Coihueco | 05-05-2026 05:30 | 11,3 | 100 | 0 | 0 | 58 | 0,6 | 989 |
| 22 | Coihueco | 05-05-2026 05:15 | 11,4 | 100 | 0 | 0 | 58 | 0,6 | 989,6 |
| 21 | Coihueco | 05-05-2026 05:00 | 11,5 | 100 | 0 | 0,5 | 59 | 0,6 | 989,3 |
| 20 | Coihueco | 05-05-2026 04:45 | 11,2 | 100 | 0 | 0 | 55 | 0,6 | 989,2 |
| 19 | Coihueco | 05-05-2026 04:30 | 11,2 | 100 | 0 | 0 | 55 | 0,6 | 989,4 |
| 18 | Coihueco | 05-05-2026 04:15 | 11,4 | 100 | 0 | 0,5 | 55 | 0,6 | 988,9 |
| 17 | Coihueco | 05-05-2026 04:00 | 11,2 | 100 | 0 | 0 | 55 | 0,6 | 988,9 |
| 16 | Coihueco | 05-05-2026 03:45 | 11,2 | 100 | 0 | 0 | 55 | 0,6 | 989 |
| 15 | Coihueco | 05-05-2026 03:30 | 11,4 | 100 | 0 | 0 | 55 | 0,6 | 989,2 |
| 14 | Coihueco | 05-05-2026 03:15 | 11,3 | 100 | 0 | 0 | 55 | 0,6 | 989,4 |
| 13 | Coihueco | 05-05-2026 03:00 | 11,3 | 100 | 0 | 0 | 55 | 0,6 | 989,6 |
| 12 | Coihueco | 05-05-2026 02:45 | 11 | 100 | 0 | 0 | 55 | 0,6 | 989,2 |
| 11 | Coihueco | 05-05-2026 02:30 | 11,4 | 100 | 0 | 0 | 55 | 0,6 | 989,4 |
| 10 | Coihueco | 05-05-2026 02:15 | 11 | 100 | 0 | 0 | 55 | 0,6 | 989,3 |
| 9 | Coihueco | 05-05-2026 02:00 | 11,1 | 100 | 0 | 0 | 55 | 0,6 | 989,4 |
| 8 | Coihueco | 05-05-2026 01:45 | 11,4 | 100 | 0 | 0 | 55 | 0,6 | 989,3 |
| 7 | Coihueco | 05-05-2026 01:30 | 11,4 | 100 | 0 | 0 | 55 | 0,6 | 989,2 |
| 6 | Coihueco | 05-05-2026 01:15 | 11,5 | 100 | 0 | 0 | 55 | 0,6 | 989,4 |
| 5 | Coihueco | 05-05-2026 01:00 | 11,4 | 100 | 0 | 0 | 55 | 0,6 | 989,5 |
| 4 | Coihueco | 05-05-2026 00:45 | 12 | 100 | 0 | 0 | 55 | 0,6 | 989,8 |
| 3 | Coihueco | 05-05-2026 00:30 | 11,9 | 100 | 0 | 0 | 55 | 0,6 | 989,6 |
| 2 | Coihueco | 05-05-2026 00:15 | 12,1 | 100 | 0 | 0 | 55 | 0,6 | 990,1 |
| 1 | Coihueco | 05-05-2026 00:00 | 12,2 | 100 | 0 | 0 | 55 | 0,6 | 990,1 |